SCP
1 0 0 0 0 0 0 0 0 0 0 0 0 0 0 0 0 0 0 0 0 0 0 0 0 0 0 0 0 0 0 0 0 0 0 0 0 0 0 0 0 0 0
1 1 0 0 0 0 0 0 0 0 0 0 0 0 0 0 0 0 0 0 0 0 0 0 0 0 0 0 0 0 0 0 0 0 0 0 0 0 0 0 0 0 0
1 1 0 0 0 0 0 0 0 0 0 0 0 0 0 0 0 0 0 0 0 0 0 0 0 0 0 0 0 0 0 0 0 0 0 0 0 0 0 0 0 0 0
1 1 0 0 0 0 0 0 0 0 0 0 0 0 0 0 0 0 0 0 0 0 0 0 0 0 0 0 0 0 0 0 0 0 0 0 0 0 0 0 0 0 0
1 1 1 0 0 0 0 0 0 0 0 0 0 0 0 0 0 0 0 0 0 0 0 0 0 0 0 0 0 0 0 0 0 0 0 0 0 0 0 0 0 0 0
0 1 1 0 0 0 0 0 0 0 0 0 0 0 0 0 0 0 0 0 0 0 0 0 0 0 0 0 0 0 0 0 0 0 0 0 0 0 0 0 0 0 0
0 1 1 1 0 0 0 0 0 0 0 0 0 0 0 0 0 0 0 0 0 0 0 0 0 0 0 0 0 0 0 0 0 0 0 0 0 0 0 0 0 0 0
0 0 1 1 1 0 0 0 0 0 0 0 0 0 0 0 0 0 0 0 0 0 0 0 0 0 0 0 0 0 0 0 0 0 0 0 0 0 0 0 0 0 0
0 0 0 1 1 0 0 0 0 0 0 0 0 0 0 0 0 0 0 0 0 0 0 0 0 0 0 0 0 0 0 0 0 0 0 0 0 0 0 0 0 0 0
0 0 0 0 0 0 0 0 0 0 0 0 0 0 0 0 0 0 0 0 0 0 0 0 0 0 0 0 0 0 0 0 0 0 0 0 0 0 0 0 0 0 0
0 0 0 0 0 0 0 0 0 0 0 0 0 0 0 0 0 0 0 0 0 0 0 0 0 0 0 0 0 0 0 0 0 0 0 0 0 0 0 0 0 0 0
0 0 0 0 0 0 0 0 0 0 0 0 0 0 0 0 0 0 0 0 0 0 0 0 0 0 0 0 0 0 0 0 0 0 0 0 0 0 0 0 0 0 0
0 0 0 0 0 0 0 0 0 0 0 0 0 0 0 0 0 0 0 0 0 0 0 0 0 0 0 0 0 0 0 0 0 0 0 0 0 0 0 0 0 0 0
0 0 0 0 0 0 0 0 0 0 0 0 0 0 0 0 0 0 0 0 0 0 0 0 0 0 0 0 0 0 0 0 0 0 0 0 0 0 0 0 0 0 0
0 0 0 0 0 0 0 0 0 0 0 0 0 0 0 0 0 0 0 0 0 0 0 0 0 0 0 0 0 0 0 0 0 0 0 0 0 0 0 0 0 0 0
0 0 0 0 0 0 0 0 0 0 0 0 0 0 0 0 0 0 0 0 0 0 0 0 0 0 0 0 0 0 0 0 0 0 0 0 0 0 0 0 0 0 0
1 1 1 0 0 0 0 0 0 0 0 0 0 0 0 0 0 0 0 0 0 0 0 0 0 0 0 0 0 0 0 0 0 0 0 0 0 0 0 0 0 0 0
1 1 1 1 0 0 0 0 0 0 0 0 0 0 0 0 0 0 0 0 0 0 0 0 0 0 0 0 0 0 0 0 0 0 0 0 0 0 0 0 0 0 0
0 1 1 1 0 0 0 0 0 0 0 0 0 0 0 0 0 0 0 0 0 0 0 0 0 0 0 0 0 0 0 0 0 0 0 0 0 0 0 0 0 0 0
0 0 1 0 0 0 0 0 0 0 0 0 0 0 0 0 0 0 0 0 0 0 0 0 0 0 0 0 0 0 0 0 0 0 0 0 0 0 0 0 0 0 0
0 0 0 0 0 0 0 0 0 0 0 0 0 0 0 0 0 0 0 0 0 0 0 0 0 0 0 0 0 0 0 0 0 0 0 0 0 0 0 0 0 0 0
0 0 0 0 0 0 0 0 0 0 0 0 0 0 0 0 0 0 0 0 0 0 0 0 0 0 0 0 0 0 0 0 0 0 0 0 0 0 0 0 0 0 0
0 0 0 0 0 0 0 0 0 0 0 0 0 0 0 0 1 0 0 0 0 0 0 0 0 0 0 0 0 0 0 0 0 0 0 0 0 0 0 0 0 0 0
0 0 0 0 0 0 0 0 0 0 0 0 0 0 0 0 0 1 0 0 0 0 0 0 0 0 0 0 0 0 0 0 0 0 0 0 0 0 0 0 0 0 0
0 0 0 0 0 0 0 0 0 0 0 0 0 0 0 0 0 0 1 0 1 1 1 1 1 1 1 1 0 0 0 0 0 0 0 0 0 0 0 0 0 0 0
0 0 0 0 0 0 0 0 0 0 0 0 0 0 0 0 0 0 0 0 0 1 1 1 1 1 1 1 0 0 0 0 0 0 0 0 0 0 0 0 0 0 0
Wind_Speed
6 6 7 6 5 5 5 5 4 3 3 2 2 2 2 1 2 2 3 3 3 4 4 3 3 3 3 3 3 3 4 3 2 3 3 4 4 4 3 3 3 4 3
5 6 7 6 6 6 5 5 5 4 4 3 2 2 2 1 1 1 3 3 3 3 3 4 3 3 3 3 3 3 2 2 2 2 3 2 4 4 4 3 3 4 3
9 8 7 6 6 6 7 6 5 5 4 4 3 3 3 3 2 2 2 2 3 3 3 4 3 3 3 3 2 3 3 2 2 2 3 3 1 1 3 4 4 4 3
9 9 8 8 8 7 6 6 6 5 5 4 4 4 3 2 1 0 0 2 3 3 3 4 4 3 3 3 2 2 2 3 1 2 2 2 3 3 1 3 3 3 4
11 11 10 9 8 7 6 6 6 5 5 5 5 5 3 2 1 1 2 2 2 3 3 4 3 3 3 3 3 3 3 2 2 1 1 2 3 3 3 1 2 3 3
11 10 9 7 7 6 6 6 7 5 5 5 5 5 5 3 3 2 2 1 1 2 2 3 3 3 2 3 2 3 3 2 3 2 2 2 2 2 2 2 1 1 2
11 10 9 8 7 7 7 7 8 6 5 5 5 5 5 5 4 3 3 2 1 0 1 2 2 2 2 2 3 3 2 2 3 2 1 1 1 2 3 3 2 1 1
10 11 11 9 8 9 8 8 8 6 6 5 5 4 4 3 3 3 3 3 2 2 2 2 2 2 2 3 3 2 2 2 2 2 2 2 1 2 2 3 3 2 2
10 10 10 9 9 9 9 9 9 7 6 6 5 5 4 4 4 3 3 2 2 2 2 3 3 2 3 3 3 2 2 2 2 2 2 2 1 2 2 2 3 4 2
9 10 9 9 9 8 7 8 8 8 7 6 6 5 4 5 4 4 4 3 2 2 3 2 2 2 2 3 3 2 2 3 2 2 3 2 1 2 2 2 2 2 4
9 9 9 8 7 7 7 7 7 6 6 6 5 5 4 4 4 4 4 4 3 3 3 3 2 2 2 2 3 2 2 3 2 2 3 2 2 2 2 2 2 2 3
8 8 8 8 7 7 7 7 7 7 7 6 6 6 5 5 4 4 4 4 3 3 3 3 3 2 2 2 2 2 2 2 2 2 2 1 2 3 2 2 2 2 2
7 7 7 8 8 8 7 7 7 7 6 6 6 6 5 5 5 5 4 4 4 3 3 3 3 3 3 2 2 2 2 2 2 2 2 1 3 2 1 2 2 1 2
8 8 7 8 8 8 8 7 7 7 7 7 7 6 6 6 6 5 4 4 4 4 3 3 3 3 3 3 2 3 2 2 2 1 2 2 2 2 2 2 2 2 2
8 9 9 8 7 7 7 7 7 7 7 7 7 7 6 5 5 5 4 4 4 4 4 3 3 2 2 3 3 3 3 3 2 1 1 1 2 3 3 2 2 3 2
9 9 10 9 9 9 8 7 7 7 7 7 7 6 5 5 5 5 5 4 4 3 3 4 3 3 2 5 7 5 3 3 2 1 0 0 1 2 2 3 4 4 4
7 9 9 10 10 10 9 9 8 6 7 7 6 6 6 6 6 6 5 5 5 4 4 3 4 3 4 6 6 7 4 3 3 2 1 1 1 1 1 2 3 2 2
8 7 8 8 8 8 7 7 7 7 7 6 6 7 7 6 5 5 6 5 4 4 4 4 4 4 4 6 6 6 4 3 2 2 2 2 1 1 2 2 2 1 1
7 7 7 7 7 7 8 8 7 7 7 7 7 7 8 7 6 6 6 5 4 4 4 4 5 4 4 6 7 6 3 2 2 2 2 2 2 3 4 3 2 0 2
5 5 5 5 6 6 7 8 7 7 8 8 8 7 8 8 8 7 6 4 4 5 4 4 4 5 5 6 7 7 3 2 1 1 1 3 3 3 4 4 3 2 2
4 5 5 5 6 6 7 7 7 8 8 6 6 6 7 7 7 6 5 4 4 4 4 3 3 4 5 6 7 8 4 4 3 2 2 2 3 3 4 4 3 4 2
3 5 5 4 4 6 7 7 7 6 5 5 6 6 6 6 6 6 5 5 5 5 4 3 2 2 3 5 6 8 7 6 4 3 2 2 3 3 2 2 3 3 2
2 3 5 4 3 5 6 7 6 5 5 5 5 5 6 5 6 6 6 4 4 4 4 4 3 2 2 3 6 7 8 8 4 3 4 4 3 2 1 1 3 2 2
2 2 4 4 3 3 5 5 5 6 7 7 6 5 5 5 4 4 5 5 5 5 4 4 4 3 2 2 2 3 3 5 3 2 2 3 2 2 1 1 1 1 2
1 2 3 4 4 4 4 4 5 6 6 6 5 5 5 5 5 4 4 5 5 6 7 6 5 5 5 6 8 6 5 4 4 4 2 1 1 1 0 0 0 0 1
1 1 2 3 3 3 3 3 4 6 7 5 5 4 4 3 4 4 2 0 2 5 7 7 7 5 6 7 9 9 9 9 9 6 3 2 2 3 2 2 1 1 1
Wind_Direction
190 164 162 160 159 159 150 148 144 142 125 107 99 89 67 36 29 27 44 54 64 72 83 85 80 80 86 87 90 86 71 56 60 72 46 23 29 38 38 45 58 53 52
174 170 164 160 170 170 162 157 157 149 147 146 145 139 132 110 70 23 31 45 67 73 90 89 89 90 93 79 76 89 84 46 50 101 90 40 10 7 21 33 56 48 41
178 179 174 173 177 176 174 169 168 159 155 140 108 84 62 44 32 24 20 20 61 76 82 90 93 93 99 101 93 103 107 90 27 73 127 130 168 336 356 23 38 42 47
176 178 180 179 185 187 176 166 167 161 152 136 127 129 128 132 191 186 48 36 58 75 82 88 89 92 94 96 92 95 102 107 67 29 51 121 147 132 57 357 12 30 43
179 183 185 186 187 181 172 168 162 158 152 144 143 137 134 151 139 93 80 60 46 58 76 88 88 92 93 93 85 85 85 97 104 85 71 68 63 86 122 102 350 10 14
181 185 186 181 182 175 167 165 160 163 160 151 146 146 148 145 129 121 119 89 50 35 63 90 89 92 95 93 95 95 92 91 90 85 85 110 110 115 116 129 108 12 348
179 181 181 183 179 173 171 166 162 166 168 159 157 159 160 157 158 162 154 141 125 85 75 90 97 94 97 100 96 90 89 91 91 93 90 95 117 137 128 122 123 70 349
182 184 185 184 179 177 173 168 169 172 172 166 167 163 156 155 160 164 157 157 167 180 161 120 110 105 96 97 93 84 83 84 88 91 91 82 74 104 127 138 132 93 19
185 186 184 183 180 179 180 175 172 174 176 171 165 164 163 159 158 156 149 152 164 161 142 125 115 107 96 97 98 85 79 87 83 83 83 83 70 82 94 117 135 137 132
185 184 183 183 183 182 181 173 171 176 177 171 171 168 166 163 156 147 150 150 154 142 135 122 124 115 103 102 96 86 77 83 71 83 84 73 63 68 79 98 103 124 140
183 182 181 179 173 170 169 169 173 171 171 173 169 162 166 163 154 153 161 161 151 142 142 143 137 135 125 110 102 96 90 88 70 72 91 78 71 71 67 76 85 94 117
174 172 172 170 169 170 173 175 176 178 179 174 167 170 168 160 159 165 167 159 154 149 145 141 137 144 147 139 126 117 100 106 104 94 92 76 84 74 66 78 88 95 114
164 163 166 171 176 178 179 180 181 182 178 170 167 169 171 169 173 177 173 163 158 155 149 139 147 158 162 156 150 136 122 124 127 129 123 117 106 90 81 88 95 95 93
170 169 178 182 181 182 181 183 186 181 174 170 170 174 181 180 179 177 173 172 165 163 165 160 166 167 161 155 148 137 130 121 118 132 138 137 140 153 141 118 127 120 94
177 180 185 189 186 185 186 184 186 182 175 172 178 186 185 177 173 173 175 171 169 173 168 160 170 168 162 169 163 152 144 136 122 92 114 145 151 157 153 142 155 136 121
188 189 188 187 188 189 190 188 186 182 172 176 185 184 177 174 174 176 172 165 170 172 163 166 174 182 186 168 167 156 149 150 144 138 112 80 112 121 129 131 148 153 151
188 190 190 191 193 193 188 187 187 177 172 178 180 177 177 177 179 175 167 170 176 175 175 179 175 188 194 172 163 159 149 151 163 173 176 129 95 101 108 93 83 103 129
186 191 191 190 190 187 182 179 173 170 177 181 184 181 178 179 175 169 173 178 174 175 181 187 185 184 197 183 172 161 150 151 170 180 175 174 226 183 150 127 93 23 308
184 188 187 182 180 180 177 166 170 172 177 185 188 186 180 178 175 177 181 178 171 179 185 181 179 183 201 193 183 165 148 157 202 209 191 184 205 201 161 137 146 310 318
174 172 167 161 168 178 166 164 175 178 189 194 192 187 182 179 182 186 184 177 173 182 180 183 189 190 200 199 190 169 151 164 204 243 224 206 204 206 173 159 165 195 261
162 156 151 161 178 170 158 167 178 194 198 187 181 181 183 183 182 180 176 168 168 167 171 181 197 199 203 199 193 178 164 176 183 206 235 237 208 190 181 171 177 195 191
148 149 148 160 173 168 163 173 191 198 183 171 173 179 182 184 177 170 174 171 165 165 176 177 200 221 209 194 192 185 181 174 175 203 218 219 198 182 177 173 173 166 133
154 158 154 158 167 173 171 183 196 179 168 165 177 182 183 185 174 173 176 173 173 174 185 183 197 217 215 206 199 193 187 182 182 197 196 189 180 165 155 158 159 144 132
137 150 150 157 178 185 184 190 186 172 166 169 176 179 178 182 179 178 177 178 184 186 190 193 200 207 207 209 197 185 179 176 174 170 145 125 113 109 105 82 98 145 158
165 148 165 176 193 193 195 194 179 168 168 170 171 173 176 176 175 179 185 189 199 194 192 198 194 191 210 217 195 179 181 180 175 142 108 97 99 104 87 358 300 142 137
165 141 164 179 192 187 194 195 179 169 165 166 170 173 171 172 168 162 146 115 201 213 207 201 193 203 206 197 192 191 188 178 162 141 152 178 186 196 203 199 203 203 206